Flag for Canada Weather past 2 weeks in Coquitlam, British Columbia, Canada

Now
59 °F

Cool.


Feels Like: 59 °F
Forecast: 56 / 81 °F
Wind: No wind

Location: P. Meadows Coastal Station

Current Time: Jul 29, 2015 at 2:41:44 AM

Latest Report: Jul 29, 2015 at 2:00 AM


Visibility: N/A

Pressure: 30.19 "Hg

Humidity: 88%

Dew point: 56 °F

Location of CoquitlamLocation

Historic Weather in Coquitlam — Graph

°F

Coquitlam temperature yesterday

Maximum temperature yesterday: 79 °F (at 6:00 PM)
Minimum temperature yesterday: 54 °F (at 6:00 AM)
Average temperature yesterday: 67 °F

Past Weeks' High & Low Weather Summary

 TemperatureHumidityPressure
High91 °F (Jul 18, 5:00 PM)97% (Jul 24, 10:00 PM)30.29 "Hg (Jul 24, 10:00 PM)
Low53 °F (Jul 23, 5:00 AM)21% (Jul 18, 5:00 PM)29.86 "Hg (Jul 22, 8:00 PM)
Average67 °F67%30.03 "Hg
* Reported Jul 14 1:00 AM — Jul 29 1:00 AM, Coquitlam, Weather by CustomWeather, © 2015

Note: Actual official high and low records may vary slightly from our data, if they occured in-between our weather recording intervals... More about our weather records

Advertising

Coquitlam weather history for previous 24 hours

 ConditionsComfort  
Time TempWeatherWind HumidityBarometerVisibility
1:00 AM
Wed, Jul 29
61 °FCool.No wind85%30.19 "HgN/A
12:00 AM62 °FCool.No wind79%30.19 "HgN/A
11:00 PM
Tue, Jul 28
64 °FMild.1 mph77%30.19 "HgN/A
10:00 PM69 °FMild.1 mph62%30.19 "HgN/A
9:00 PM71 °FMild.2 mph53%30.18 "HgN/A
8:00 PM72 °FMild.5 mph51%30.18 "HgN/A
7:00 PM77 °FWarm.5 mph44%30.18 "HgN/A
6:00 PM79 °FWarm.5 mph40%30.18 "HgN/A
5:00 PM78 °FWarm.6 mph42%30.19 "HgN/A
4:00 PM78 °FWarm.5 mph41%30.20 "HgN/A
3:00 PM78 °FWarm.5 mph46%30.22 "HgN/A
2:00 PM77 °FWarm.3 mph43%30.23 "HgN/A
1:00 PM76 °FMild.2 mph46%30.24 "HgN/A
12:00 PM73 °FMild.3 mph52%30.26 "HgN/A
11:00 AM71 °FMild.2 mph54%30.27 "HgN/A
10:00 AM68 °FMild.2 mph61%30.27 "HgN/A
9:00 AM64 °FMild.2 mph72%30.29 "HgN/A
8:00 AM61 °FCool.1 mph78%30.28 "HgN/A
7:00 AM59 °FCool.No wind87%30.27 "HgN/A
6:00 AM54 °FCool.No wind93%30.27 "HgN/A
5:00 AM55 °FCool.No wind94%30.26 "HgN/A
4:00 AM56 °FCool.No wind90%30.25 "HgN/A
3:00 AM58 °FCool.1 mph89%30.24 "HgN/A
2:00 AM59 °FCool.No wind80%30.23 "HgN/A
Weather by CustomWeather, © 2015

See weather overviewHow to use our weather pages